Location: *
(45.1961°N, 1.9694°E)
Time: 12:09:55
(UTC+00:00)

COSMOS 2455 - Pass Details

Date: 25 August 2019
Orbit: 899 x 910 km, 67.1° (Epoch: 20 September)

Event Time Altitude Azimuth Distance (km) Brightness Sun altitude
Rises 23:40:06 0° 328° (NNW) 3,550 6.8 -34.1°
Reaches altitude 10° 23:42:37 10° 329° (NNW) 2,604 5.9 -34.2°
Enters shadow 23:46:59 50° 337° (NNW) 1,151 3.6 -34.2°
